Regional Weather Roundup
Issued by NWS

Home | Current Version | Previous Version | Text Only | Print | Product List | Glossary On
Versions: 1 2 3 4 5 6 7 8 9 10 11 12 13 14 15 16 17 18 19 20 21 22 23 24 25 26 27 28 29 30 31 32 33 34 35 36 37 38 39 40 41 42 43 44 45 46 47 48 49 50
000
ASUS43 KDMX 241607
RWRIA

WEATHER ROUNDUP FOR IOWA
NATIONAL WEATHER SERVICE DES MOINES IA
1000 AM CST MON NOV 24 2014

NOTE: "FAIR" INDICATES FEW OR NO CLOUDS BELOW 12,000 FEET WITH NO
SIGNIFICANT WEATHER AND/OR OBSTRUCTIONS TO VISIBILITY.

* - THESE STATIONS ARE NOT NWS STATIONS...THUS NOT UNDER NWS
QUALITY CONTROL.  THEY ALSO DO NOT REPORT WEATHER SUCH
AS PRECIPITATION OR FOG.

IAZ001>003-012>014-020>022-031>034-043>046-241700-
   NORTHWEST IOWA

CITY           SKY/WX    TMP DP  RH WIND       PRES   REMARKS
CARROLL *      CLOUDY    23  16  74 NW22G39   29.61R WCI   8
CHEROKEE *     FLURRIES  22  15  76 NW21G29   29.63R WCI   6
DENISON *      CLOUDY    25  16  68 NW23G35   29.62R WCI  10
LE MARS *      FLURRIES  21  16  79 NW23G37   29.68R WCI   5
ORANGE CITY *  FLURRIES  21  14  73 NW26G36   29.63R WCI   4
SHELDON *      FLURRIES  19  14  79 NW22G32   29.61R WCI   3
SIOUX CITY     FLURRIES  25  17  72 NW28G37   29.68R WCI   9
SPENCER        CLOUDY    21  12  68 NW29G39   29.58R WCI   3
STORM LAKE *   CLOUDY    21  14  73 NW29G39   29.60R WCI   3
$$

IAZ055>058-069>071-079>083-090>094-241700-
   SOUTHWEST IOWA

CITY           SKY/WX    TMP DP  RH WIND       PRES   REMARKS
ATLANTIC *     CLOUDY    27  18  69 NW29G35   29.65R WCI  11
AUDUBON *      CLOUDY    25  14  63 NW16G23   29.62R WCI  12
CLARINDA *     CLOUDY    30  19  64 NW25G37   29.70R WCI  16
COUNCIL BLFS * CLOUDY    27  19  74 NW22G28   29.67R WCI  12
CRESTON *      CLOUDY    27  19  74 W28G38    29.62R WCI  11
HARLAN  *      CLOUDY    27  18  69 NW28      29.68R WCI  11
LAMONI         CLOUDY    29  20  69 W25G33    29.62R WCI  14
RED OAK *      CLOUDY    28  19  69 NW20G35   29.68R WCI  15
SHENANDOAH *   CLOUDY    30  21  69 NW20G26   29.71R WCI  18
$$

IAZ047>049-059>061-072>074-084-241700-
   CENTRAL IOWA

CITY           SKY/WX    TMP DP  RH WIND       PRES   REMARKS
AMES           CLOUDY    24  16  71 NW21G37   29.55R WCI   9
ANKENY *       CLOUDY    25  18  74 NW20G29   29.57R WCI  11
CHARITON *     CLOUDY    27  19  74 NW20G32   29.59R WCI  13
DES MOINES     CLOUDY    27  17  66 NW23G35   29.58R WCI  12
GRINNELL*      CLOUDY    26  21  84 W28G33    29.51R WCI   9
KNOXVILLE *    CLOUDY    27  18  69 W21G32    29.55R WCI  13
MARSHALLTOWN   CLOUDY    24  19  81 NW25G41   29.50R WCI   8
PELLA *        CLOUDY    26  20  77 NW20G36   29.57R WCI  13
PERRY *        CLOUDY    25  19  76 NW21G30   29.60R WCI  11
$$

IAZ004>006-015-016-023>025-035-036-241700-
   NORTH CENTRAL IOWA

CITY           SKY/WX    TMP DP  RH WIND       PRES   REMARKS
ALGONA *       FLURRIES  21  14  73 NW22G33   29.54R WCI   5
CLARION *      CLOUDY    21  18  86 NW25G35   29.52R WCI   4
ESTHERVILLE    CLOUDY    19  12  74 NW28G40   29.55R WCI   1
FORT DODGE *   CLOUDY    21  12  68 W17G28    29.57R WCI   7
MASON CITY     CLOUDY    20  16  84 NW30G40   29.47R WCI   1
FOREST CITY *  LGT SNOW  19  18  93 NW25G32   29.49R WCI   2
IOWA FALLS *   CLOUDY    23  18  82 W28G35    29.50R WCI   5
$$

IAZ007>011-017>019-026>030-037>042-050>054-066-241700-
   NORTHEAST IOWA

CITY           SKY/WX    TMP DP  RH WIND       PRES   REMARKS
CEDAR RAPIDS   CLOUDY    25  23  92 W30G39    29.44R WCI   8
CHARLES CITY * CLOUDY    21  18  86 NW23G35   29.43R FOG     WCI   5
CLINTON *      CLOUDY    28  25  86 W25       29.39R VSB 1   WCI  14
DECORAH *      LGT SNOW  25  21  86 W14G24    29.34R WCI  13
DUBUQUE        SNOW      27  25  92 W23G32    29.32R VSB 1/2 WCI  12
MONTICELLO *   LGT SNOW  28  25  86 W20G32    29.38R WCI  15
OELWEIN *      CLOUDY    23  21  93 W28G36    29.39R FOG     WCI   6
WATERLOO       CLOUDY    23  19  85 NW23G33   29.44R WCI   7
$$

IAZ064-065-067-068-078-241700-
   EAST CENTRAL IOWA

CITY           SKY/WX    TMP DP  RH WIND       PRES   REMARKS
DAVENPORT      LGT SNOW  28  25  88 W26       29.41R FOG     WCI  13
IOWA CITY      CLOUDY    29  25  85 W24G33    29.47R WCI  15
MT. PLEASANT * CLOUDY    29  26  87 W18G29    29.51R WCI  17
MUSCATINE *    MIX PCPN  30  27  86 W21G30    29.47R WCI  17
QUAD CITIES    LGT SNOW  30  26  85 W22       29.41R FOG     WCI  17
$$

IAZ062-063-075>077-085>089-095>099-241700-
   SOUTHEAST IOWA

CITY           SKY/WX    TMP DP  RH WIND       PRES   REMARKS
BURLINGTON     CLOUDY    30  27  88 W17G25    29.50R WCI  18
FAIRFIELD *    MIX PCPN  28  23  80 W23G33    29.52R WCI  14
FORT MADISON * CLOUDY    30  28  93 W18G25    29.53R WCI  18
KEOKUK *       CLOUDY    32  27  80 W16       29.54R WCI  21
OSKALOOSA *    CLOUDY    27  23  85 W24G31    29.54R WCI  12
CENTERVILLE *  CLOUDY    27  23  86 W18G31    29.59R WCI  13
OTTUMWA        CLOUDY    27  20  75 W22G30    29.53R WCI  13
WASHINGTON *   CLOUDY    30  28  93 W28       29.49R WCI  16
$$

ABBREVIATIONS USED IN REMARKS
   TC - TEMPERATURES IN CELSIUS
  WCI - WIND CHILL INDEX
   HX - HEAT INDEX
  VSB - VISIBILITY
$$




USA.gov is the U.S. government's official web portal to all federal, state and local government web resources and services.